Location: Sceptre
(50.8619°N, 109.2670°W)
Time: 22:59:28
(UTC+00:00)

Envisat - Pass Details

Date: 31 January 2022
Orbit: 764 x 765 km, 98.2° (Epoch: 22 May)

Event Time Altitude Azimuth Distance (km) Brightness Sun altitude
Rises 11:11:10 0° 24° (NNE) 3,243 6.7 -35.1°
Reaches altitude 10° 11:13:55 10° 38° (NE) 2,312 6.0 -34.7°
Maximum altitude 11:18:00 24° 91° (E) 1,557 5.1 -34.1°
Drops below altitude 10° 11:22:03 10° 145° (SE) 2,299 5.7 -33.4°
Sets 11:24:47 0° 159° (SSE) 3,220 6.3 -33.0°
